{"data":{"norad_id":48864,"intl_designator":"2021-055E","name":"TIANQI-14","alt_names":[],"object_type":"PAYLOAD","status":"ACTIVE","operator":null,"country":"PRC","launch_date":"2021-06-18","launch_site_code":"XICLF","launch_vehicle":null,"mission":null,"orbit_class":"UNKNOWN","rcs_meters":null,"size_class":null,"mass_kg":null,"dimensions":null,"purposes":[],"wikipedia_slug":null,"has_3d_model":false,"image_url":null,"decayed_at":null,"tle_current":{"epoch":"2026-09-20T03:23:15.836064Z","epoch_age_seconds":92644,"freshness":"FRESH","line1":"1 48864U 21055E   26263.14115551  .00004234  00000+0  22619-3 0  9990","line2":"2 48864  34.9978 209.4257 0003338  84.3686 275.7407 15.14554817288127","mean_motion":15.14554817,"eccentricity":0.0003338,"inclination_deg":34.9978,"raan_deg":209.4257,"arg_perigee_deg":84.3686,"mean_anomaly_deg":275.7407,"bstar":0.00022619,"rev_number":28812,"period_min":95.077443472949,"perigee_km":520.02705255058,"apogee_km":524.6338046059,"semimajor_km":6900.4674285782,"source":"CELESTRAK","updated_at":"2026-09-20T09:00:15.220569Z"}}}